• In Uzbekistan
  • List of Countries
  • For 7 days
  • Water Temperature
  • Weather Map
  • Weather Widgets
  • user-avatar
    Login

    Hourly Weather Plymouth

    Today, 27 February, Thursday

    Time Temperature Precipitation Wind Pressure Humidity
    00:00 +3°C° 0.4 mm 6 mps 749 mmHg 96%
    01:00 +4°C° 2.1 mm 7 mps 747 mmHg 96%
    02:00 +4°C° 2.1 mm 8 mps 745 mmHg 97%
    03:00 +5°C° 2.1 mm 8 mps 743 mmHg 97%
    04:00 +5°C° 0.9 mm 8 mps 743 mmHg 97%
    05:00 +5°C° 0.9 mm 8 mps 742 mmHg 97%
    06:00 +5°C° 0.9 mm 8 mps 742 mmHg 97%
    07:00 +5°C° 0 mm 8 mps 743 mmHg 95%
    08:00 +3°C° 0 mm 9 mps 745 mmHg 92%
    09:00 +2°C° 0 mm 10 mps 747 mmHg 90%
    10:00 +3°C° 0 mm 10 mps 749 mmHg 86%
    11:00 +3°C° 0 mm 10 mps 750 mmHg 82%
    12:00 +3°C° 0 mm 9 mps 752 mmHg 78%
    13:00 +3°C° 0 mm 9 mps 753 mmHg 77%
    14:00 +4°C° 0 mm 8 mps 754 mmHg 75%
    15:00 +4°C° 0 mm 8 mps 755 mmHg 73%
    16:00 +3°C° 0 mm 6 mps 756 mmHg 77%
    17:00 +2°C° 0 mm 5 mps 756 mmHg 82%
    18:00 +2°C° 0 mm 3 mps 757 mmHg 86%
    19:00 +1°C° 0 mm 3 mps 758 mmHg 86%
    20:00 +2°C° 0 mm 2 mps 758 mmHg 86%
    21:00 +3°C° 0 mm 1 mps 759 mmHg 85%
    22:00 +2°C° 0 mm 2 mps 759 mmHg 84%
    23:00 +2°C° 0 mm 2 mps 759 mmHg 82%

    Tomorrow, 28 February, Friday

    Time Temperature Precipitation Wind Pressure Humidity
    00:00 +2°C° 0 mm 3 mps 759 mmHg 80%
    01:00 +1°C° 0 mm 4 mps 758 mmHg 79%
    02:00 +2°C° 0 mm 5 mps 757 mmHg 77%
    03:00 +3°C° 0 mm 6 mps 756 mmHg 76%
    04:00 +2°C° 0.3 mm 8 mps 755 mmHg 81%
    05:00 +2°C° 0.3 mm 9 mps 754 mmHg 86%
    06:00 +2°C° 0.3 mm 10 mps 753 mmHg 91%
    07:00 +5°C° 2 mm 10 mps 752 mmHg 94%
    08:00 +6°C° 2 mm 9 mps 751 mmHg 96%
    09:00 +7°C° 2 mm 9 mps 750 mmHg 98%
    10:00 +8°C° 1.2 mm 10 mps 750 mmHg 97%
    11:00 +9°C° 1.2 mm 10 mps 749 mmHg 97%
    12:00 +9°C° 1.2 mm 11 mps 749 mmHg 96%
    13:00 +9°C° 0.1 mm 11 mps 748 mmHg 94%
    14:00 +9°C° 0.1 mm 11 mps 748 mmHg 93%
    15:00 +11°C° 0.1 mm 11 mps 747 mmHg 91%
    16:00 +9°C° 0.1 mm 11 mps 747 mmHg 91%
    17:00 +9°C° 0.1 mm 11 mps 746 mmHg 92%
    18:00 +8°C° 0.1 mm 11 mps 745 mmHg 92%
    19:00 +8°C° 0.6 mm 12 mps 744 mmHg 93%
    20:00 +8°C° 0.6 mm 13 mps 743 mmHg 94%
    21:00 +8°C° 0.6 mm 14 mps 742 mmHg 94%
    22:00 +8°C° 1.2 mm 14 mps 741 mmHg 94%
    23:00 +8°C° 1.2 mm 15 mps 739 mmHg 94%

    Day after tomorrow, 29 February, Saturday

    Time Temperature Precipitation Wind Pressure Humidity
    00:00 +7°C° 1.2 mm 16 mps 738 mmHg 94%
    01:00 +8°C° 2 mm 14 mps 737 mmHg 94%
    02:00 +8°C° 2 mm 13 mps 735 mmHg 94%
    03:00 +8°C° 2 mm 12 mps 734 mmHg 93%
    04:00 +7°C° 1.4 mm 12 mps 734 mmHg 90%
    05:00 +4°C° 1.4 mm 11 mps 734 mmHg 87%
    06:00 +3°C° 1.4 mm 11 mps 734 mmHg 83%
    07:00 +2°C° 0.1 mm 12 mps 735 mmHg 79%
    08:00 +1°C° 0.1 mm 13 mps 735 mmHg 75%
    09:00 0°C° 0.1 mm 14 mps 736 mmHg 71%
    10:00 +1°C° 0.3 mm 15 mps 736 mmHg 70%
    11:00 +1°C° 0.3 mm 16 mps 736 mmHg 68%
    12:00 +1°C° 0.3 mm 17 mps 735 mmHg 66%
    13:00 +2°C° 0.1 mm 18 mps 735 mmHg 67%
    14:00 +2°C° 0.1 mm 19 mps 734 mmHg 68%
    15:00 +2°C° 0.1 mm 20 mps 733 mmHg 69%
    16:00 +2°C° 0.6 mm 20 mps 734 mmHg 75%
    17:00 +2°C° 0.6 mm 19 mps 734 mmHg 80%
    18:00 +3°C° 0.6 mm 18 mps 735 mmHg 85%
    19:00 +2°C° 0.3 mm 17 mps 735 mmHg 84%
    20:00 +2°C° 0.3 mm 16 mps 736 mmHg 82%
    21:00 +2°C° 0.3 mm 15 mps 737 mmHg 80%
    22:00 +2°C° 0.2 mm 15 mps 738 mmHg 79%
    23:00 +1°C° 0.2 mm 14 mps 739 mmHg 77%

    1 March, Sunday

    Time Temperature Precipitation Wind Pressure Humidity
    00:00 +1°C° 0.2 mm 14 mps 740 mmHg 76%
    01:00 +1°C° 0.2 mm 13 mps 740 mmHg 77%
    02:00 0°C° 0.2 mm 12 mps 741 mmHg 77%
    03:00 0°C° 0.2 mm 12 mps 741 mmHg 78%
    04:00 0°C° 0.1 mm 12 mps 741 mmHg 78%
    05:00 +1°C° 0.1 mm 11 mps 741 mmHg 78%
    06:00 -1°C° 0.1 mm 11 mps 741 mmHg 79%
    07:00 +1°C° 0.1 mm 11 mps 741 mmHg 78%
    08:00 +1°C° 0.1 mm 11 mps 742 mmHg 77%
    09:00 +2°C° 0.1 mm 10 mps 742 mmHg 76%
    10:00 +2°C° 0.2 mm 11 mps 742 mmHg 73%
    11:00 +3°C° 0.2 mm 11 mps 742 mmHg 70%
    12:00 +4°C° 0.2 mm 11 mps 743 mmHg 68%
    13:00 +4°C° 0.2 mm 11 mps 743 mmHg 68%
    14:00 +4°C° 0.2 mm 11 mps 743 mmHg 68%
    15:00 +5°C° 0.2 mm 10 mps 743 mmHg 68%
    16:00 +3°C° 0.1 mm 9 mps 743 mmHg 71%
    17:00 +2°C° 0.1 mm 8 mps 743 mmHg 74%
    18:00 +2°C° 0.1 mm 7 mps 743 mmHg 77%
    19:00 +2°C° 0 mm 7 mps 743 mmHg 79%
    20:00 +1°C° 0 mm 6 mps 743 mmHg 81%
    21:00 +1°C° 0 mm 6 mps 744 mmHg 83%
    22:00 +1°C° 0 mm 5 mps 744 mmHg 84%
    23:00 0°C° 0 mm 5 mps 744 mmHg 84%

    2 March, Monday

    Time Temperature Precipitation Wind Pressure Humidity
    00:00 0°C° 0 mm 5 mps 744 mmHg 85%
    01:00 0°C° 0 mm 4 mps 744 mmHg 85%
    02:00 0°C° 0 mm 4 mps 744 mmHg 86%
    03:00 0°C° 0 mm 4 mps 744 mmHg 87%
    04:00 0°C° 0 mm 4 mps 744 mmHg 87%
    05:00 0°C° 0 mm 3 mps 744 mmHg 88%
    06:00 0°C° 0 mm 3 mps 744 mmHg 88%
    07:00 0°C° 0 mm 4 mps 745 mmHg 84%
    08:00 +2°C° 0 mm 5 mps 745 mmHg 80%
    09:00 +3°C° 0 mm 5 mps 746 mmHg 77%
    10:00 +4°C° 0.1 mm 6 mps 747 mmHg 72%
    11:00 +4°C° 0.1 mm 6 mps 747 mmHg 68%
    12:00 +5°C° 0.1 mm 6 mps 748 mmHg 64%
    13:00 +5°C° 0.1 mm 7 mps 748 mmHg 64%
    14:00 +5°C° 0.1 mm 7 mps 748 mmHg 64%
    15:00 +5°C° 0.1 mm 8 mps 748 mmHg 65%
    16:00 +4°C° 0 mm 7 mps 749 mmHg 69%
    17:00 +2°C° 0 mm 7 mps 749 mmHg 74%
    18:00 0°C° 0 mm 7 mps 750 mmHg 78%
    19:00 0°C° 0 mm 7 mps 751 mmHg 80%
    20:00 -1°C° 0 mm 6 mps 751 mmHg 81%
    21:00 -1°C° 0 mm 6 mps 752 mmHg 83%
    22:00 -1°C° 0.1 mm 6 mps 752 mmHg 83%
    23:00 -1°C° 0.1 mm 6 mps 752 mmHg 84%

    3 March, Tuesday

    Time Temperature Precipitation Wind Pressure Humidity
    00:00 -1°C° 0.1 mm 6 mps 753 mmHg 85%
    01:00 -1°C° 0.1 mm 6 mps 753 mmHg 84%
    02:00 -1°C° 0.1 mm 6 mps 753 mmHg 84%
    03:00 -1°C° 0.1 mm 6 mps 753 mmHg 84%
    04:00 0°C° 0.1 mm 5 mps 752 mmHg 85%
    05:00 +1°C° 0.1 mm 5 mps 752 mmHg 86%
    06:00 +1°C° 0.1 mm 5 mps 752 mmHg 87%
    07:00 +2°C° 0.1 mm 5 mps 752 mmHg 85%
    08:00 +3°C° 0.1 mm 5 mps 751 mmHg 83%
    09:00 +5°C° 0.1 mm 5 mps 751 mmHg 81%
    10:00 +4°C° 0.5 mm 6 mps 750 mmHg 85%
    11:00 +4°C° 0.5 mm 6 mps 750 mmHg 89%
    12:00 +4°C° 0.5 mm 7 mps 749 mmHg 94%
    13:00 +4°C° 0.7 mm 7 mps 748 mmHg 94%
    14:00 +4°C° 0.7 mm 7 mps 747 mmHg 94%
    15:00 +4°C° 0.7 mm 7 mps 746 mmHg 95%
    16:00 +4°C° 0 mm 6 mps 746 mmHg 95%
    17:00 +5°C° 0 mm 4 mps 746 mmHg 96%
    18:00 +5°C° 0 mm 3 mps 746 mmHg 97%
    19:00 +5°C° 0 mm 4 mps 746 mmHg 95%
    20:00 +5°C° 0 mm 6 mps 747 mmHg 93%
    21:00 +5°C° 0 mm 8 mps 747 mmHg 92%
    22:00 +5°C° 0 mm 8 mps 747 mmHg 92%
    23:00 +4°C° 0 mm 7 mps 747 mmHg 92%
    Show more